Date String (YYYY-MM-DD hh:mm:ss) UTC,Instrument flags,Ambient pressure (hPa),Sample flow (lpm),Bypass flow (lpm),Sample temperature (°C),Ambient temperature (°C),ASC tube jacket temperature (°C),LED temperature (°C),Box temperature (°C),Sample RH (%),Span deviation,Mass concentration (μg/m³),Mass concentration (μg/m³),Mass concentration (μg/m³)
DateTimeUTC,F1_M11,P_M11,Q1_M11,Q2_M11,T1_M11,T2_M11,T3_M11,T4_M11,T5_M11,U1_M11,ZSPAN_M11,X0_M11,X2_M11,X1_M11
2021-11-10 19:00:00,,0823.5,5.00,0.00,26.5,25.6,00.0,35.7,28.3,09.1,0000.0,0007.71,0003.28,0002.54
2021-11-10 19:01:00,,0823.5,4.99,0.00,26.5,25.6,00.0,35.7,28.2,09.1,0000.0,0007.71,0003.29,0002.54
2021-11-10 19:02:00,,0823.6,5.01,0.00,26.5,25.5,00.0,35.7,28.2,09.4,0000.0,0008.59,0003.29,0002.53
2021-11-10 19:03:00,,0823.6,5.00,0.00,26.5,25.5,00.0,35.7,28.2,09.0,0000.0,0008.91,0003.27,0002.52
2021-11-10 19:04:00,,0823.6,4.99,0.00,26.5,25.5,00.0,35.7,28.2,08.9,0000.0,0009.27,0003.29,0002.53
2021-11-10 19:05:00,,0823.5,5.02,0.00,26.5,25.5,00.0,35.7,28.2,09.2,0000.0,0009.10,0003.31,0002.54
2021-11-10 19:06:00,,0823.7,5.01,0.00,26.5,25.5,00.0,35.6,28.1,09.2,0000.0,0008.09,0003.28,0002.53
2021-11-10 19:07:00,,0823.7,5.00,0.00,26.5,25.5,00.0,35.6,28.1,09.3,0000.0,0008.68,0003.30,0002.52
2021-11-10 19:08:00,,0823.6,4.99,0.00,26.5,25.5,00.0,35.6,28.1,09.3,0000.0,0008.99,0003.27,0002.51
2021-11-10 19:09:00,,0823.7,5.00,0.00,26.5,25.4,00.0,35.6,28.1,09.6,0000.0,0009.34,0003.30,0002.54
2021-11-10 19:10:00,,0823.6,4.99,0.00,26.5,25.4,00.0,35.6,28.1,09.7,0000.0,0009.46,0003.31,0002.52
2021-11-10 19:11:00,,0823.6,5.00,0.00,26.5,25.4,00.0,35.6,28.2,09.7,0000.0,0009.40,0003.33,0002.50
2021-11-10 19:12:00,,0823.6,4.99,0.00,26.4,25.5,00.0,35.6,28.1,09.8,0000.0,0009.96,0003.36,0002.50
2021-11-10 19:13:00,,0823.6,4.99,0.00,26.4,25.4,00.0,35.6,28.1,09.8,0000.0,0010.37,0003.38,0002.49
2021-11-10 19:14:00,,0823.5,5.01,0.00,26.4,25.4,00.0,35.6,28.1,09.7,0000.0,0010.05,0003.37,0002.48
2021-11-10 19:15:00,,0823.6,5.00,0.00,26.4,25.4,00.0,35.6,28.1,09.6,0000.0,0009.65,0003.35,0002.47
2021-11-10 19:16:00,,0823.6,5.00,0.00,26.4,25.4,00.0,35.6,28.1,09.8,0000.0,0009.62,0003.33,0002.44
2021-11-10 19:17:00,,0823.7,4.99,0.00,26.4,25.4,00.0,35.6,28.1,10.0,0000.0,0010.09,0003.31,0002.42
2021-11-10 19:18:00,,0823.7,5.00,0.00,26.4,25.4,00.0,35.6,28.1,10.0,0000.0,0010.42,0003.29,0002.40
2021-11-10 19:19:00,,0823.6,5.01,0.00,26.4,25.4,00.0,35.5,28.1,10.1,0000.0,0010.07,0003.29,0002.37
2021-11-10 19:20:00,,0823.7,4.98,0.00,26.4,25.4,00.0,35.5,28.1,10.2,0000.0,0009.90,0003.25,0002.34
2021-11-10 19:21:00,,0823.7,5.01,0.00,26.4,25.4,00.0,35.5,28.1,10.2,0000.0,0009.65,0003.22,0002.32
2021-11-10 19:22:00,,0823.6,5.01,0.00,26.4,25.4,00.0,35.5,28.0,10.0,0000.0,0009.60,0003.16,0002.29
2021-11-10 19:23:00,,0823.6,4.99,0.00,26.3,25.3,00.0,35.5,28.0,09.6,0000.0,0009.29,0003.15,0002.29
2021-11-10 19:24:00,,0823.7,4.99,0.00,26.3,25.3,00.0,35.5,28.0,09.4,0000.0,0007.93,0003.12,0002.29
2021-11-10 19:25:00,,0823.7,5.00,0.00,26.3,25.3,00.0,35.5,28.0,09.6,0000.0,0007.68,0003.13,0002.30
2021-11-10 19:26:00,,0823.7,5.00,0.00,26.3,25.3,00.0,35.5,27.9,09.5,0000.0,0007.66,0003.12,0002.29
2021-11-10 19:27:00,,0823.7,5.00,0.00,26.3,25.2,00.0,35.5,28.0,09.5,0000.0,0007.75,0003.11,0002.30
2021-11-10 19:28:00,,0823.7,5.00,0.00,26.3,25.2,00.0,35.5,28.0,09.6,0000.0,0008.00,0003.16,0002.33
2021-11-10 19:29:00,,0823.7,4.99,0.00,26.3,25.2,00.0,35.5,28.0,09.7,0000.0,0007.18,0003.16,0002.33
2021-11-10 19:30:00,,0823.6,5.02,0.00,26.3,25.3,00.0,35.5,28.0,09.0,0000.0,0006.69,0003.16,0002.35
2021-11-10 19:31:00,,0823.7,5.01,0.00,26.3,25.3,00.0,35.5,28.0,09.0,0000.0,0006.44,0003.16,0002.36
2021-11-10 19:32:00,,0823.6,5.00,0.00,26.3,25.2,00.0,35.5,28.0,09.3,0000.0,0006.71,0003.15,0002.36
2021-11-10 19:33:00,,0823.7,5.00,0.00,26.3,25.2,00.0,35.5,28.0,08.9,0000.0,0006.85,0003.20,0002.38
2021-11-10 19:34:00,,0823.7,5.00,0.00,26.3,25.2,00.0,35.4,27.9,08.9,0000.0,0006.51,0003.17,0002.39
2021-11-10 19:35:00,,0823.7,4.99,0.00,26.3,25.2,00.0,35.4,28.0,09.1,0000.0,0006.56,0003.18,0002.39
2021-11-10 19:36:00,,0823.7,5.01,0.00,26.3,25.2,00.0,35.4,28.0,09.4,0000.0,0007.06,0003.22,0002.40
2021-11-10 19:37:00,,0823.7,5.00,0.00,26.3,25.3,00.0,35.4,27.9,09.5,0000.0,0007.16,0003.23,0002.39
2021-11-10 19:38:00,,0823.7,5.01,0.00,26.3,25.2,00.0,35.4,27.9,09.4,0000.0,0007.19,0003.23,0002.40
2021-11-10 19:39:00,,0823.7,5.01,0.00,26.3,25.1,00.0,35.4,27.9,09.1,0000.0,0007.15,0003.17,0002.38
2021-11-10 19:40:00,,0823.7,5.00,0.00,26.3,25.2,00.0,35.4,28.0,08.6,0000.0,0007.31,0003.16,0002.40
2021-11-10 19:41:00,,0823.7,4.99,0.00,26.2,25.2,00.0,35.4,28.0,08.4,0000.0,0007.39,0003.16,0002.40
2021-11-10 19:42:00,,0823.7,5.01,0.00,26.3,25.2,00.0,35.4,28.0,09.0,0000.0,0007.36,0003.15,0002.39
2021-11-10 19:43:00,,0823.8,5.00,0.00,26.2,25.3,00.0,35.4,28.0,09.3,0000.0,0007.25,0003.16,0002.39
2021-11-10 19:44:00,,0823.7,4.99,0.00,26.2,25.3,00.0,35.4,28.0,09.3,0000.0,0007.79,0003.16,0002.40
2021-11-10 19:45:00,,0823.7,5.00,0.00,26.2,25.3,00.0,35.4,28.0,08.9,0000.0,0008.30,0003.21,0002.40
2021-11-10 19:46:00,,0823.7,5.01,0.00,26.2,25.3,00.0,35.4,27.9,08.8,0000.0,0008.31,0003.20,0002.40
2021-11-10 19:47:00,,0823.7,4.99,0.00,26.2,25.3,00.0,35.4,28.0,09.1,0000.0,0008.06,0003.19,0002.39
2021-11-10 19:48:00,,0823.8,5.00,0.00,26.2,25.3,00.0,35.4,28.0,09.1,0000.0,0008.05,0003.19,0002.40
2021-11-10 19:49:00,,0823.7,5.01,0.00,26.2,25.3,00.0,35.4,27.9,09.2,0000.0,0008.03,0003.20,0002.39
2021-11-10 19:50:00,,0823.8,4.99,0.00,26.2,25.2,00.0,35.4,27.9,09.5,0000.0,0007.68,0003.20,0002.39
2021-11-10 19:51:00,,0823.7,4.99,0.00,26.2,25.3,00.0,35.4,27.9,09.5,0000.0,0007.96,0003.22,0002.37
2021-11-10 19:52:00,,0823.8,4.99,0.00,26.2,25.3,00.0,35.4,27.9,09.4,0000.0,0008.00,0003.22,0002.35
2021-11-10 19:53:00,,0823.8,5.00,0.00,26.2,25.2,00.0,35.4,27.9,09.4,0000.0,0008.12,0003.25,0002.33
2021-11-10 19:54:00,,0823.7,5.01,0.00,26.2,25.2,00.0,35.4,27.9,09.5,0000.0,0008.16,0003.25,0002.33
2021-11-10 19:55:00,,0823.8,5.01,0.00,26.2,25.3,00.0,35.4,27.9,09.4,0000.0,0007.80,0003.22,0002.31
2021-11-10 19:56:00,,0823.8,4.99,0.00,26.2,25.3,00.0,35.3,27.9,09.2,0000.0,0006.95,0003.14,0002.30
2021-11-10 19:57:00,,0823.8,4.99,0.00,26.2,25.2,00.0,35.3,27.9,09.5,0000.0,0006.87,0003.12,0002.27
2021-11-10 19:58:00,,0823.8,5.01,0.00,26.2,25.3,00.0,35.3,27.9,09.6,0000.0,0007.23,0003.07,0002.24
2021-11-10 19:59:00,,0823.8,5.00,0.00,26.2,25.3,00.0,35.3,27.9,09.7,0000.0,0007.59,0003.03,0002.23
